IU1DOF-3 Weather Reports


Display with metric or nautical units.
time (UTC)temp
F
wind
direction
speed
MPH
gust
MPH
rain 1hr
in
rain 24hr
in
rain mn
in
humidity
%
barometer
mb
20260904090340 80 286 0.0 0.0 0.00 0.00 0.00 55 1019.8
20260904085333 77 286 0.0 0.0 0.00 0.00 0.00 57 1019.7
20260904084309 76 286 0.0 0.0 0.00 0.00 0.00 56 1019.9
20260904083301 75 285 0.0 0.0 0.00 0.00 0.00 61 1019.7
20260904083251 75 283 0.0 0.0 0.00 0.00 0.00 61 1019.7
20260904082341 75 284 0.0 0.0 0.00 0.00 0.00 59 1019.9
20260904081317 73 285 0.0 0.0 0.00 0.00 0.00 61 1019.6
20260904080252 74 283 0.0 0.0 0.00 0.00 0.00 63 1019.8
20260904075242 74 294 0.0 0.0 0.00 0.00 0.00 58 1019.6
20260904074220 75 295 0.0 0.0 0.00 0.00 0.00 58 1019.6
20260904073212 74 295 0.0 0.0 0.00 0.00 0.00 62 1019.8
20260904073157 74 295 0.0 0.0 0.00 0.00 0.00 58 1019.8
20260904071741 70 293 0.0 0.0 0.00 0.00 0.00 64 1019.5
20260904070725 68 293 0.0 0.0 0.00 0.00 0.00 69 1019.7
20260904065701 66 293 0.0 0.0 0.00 0.00 0.00 71 1019.9
20260904064640 66 293 0.0 0.0 0.00 0.00 0.00 71 1019.9
20260904063629 65 293 0.0 0.0 0.00 0.00 0.00 73 1020.0
20260904062604 63 293 0.0 0.0 0.00 0.00 0.00 77 1019.7
20260904061541 63 293 0.0 0.0 0.00 0.00 0.00 72 1019.9
20260904060517 61 295 0.0 0.0 0.00 0.00 0.00 76 1019.9
20260904055453 59 304 0.0 0.0 0.00 0.00 0.00 79 1019.8
20260904054441 58 303 0.0 0.0 0.00 0.00 0.00 79 1020.0
20260904053420 58 297 0.0 0.0 0.00 0.00 0.00 78 1019.8
20260904052357 59 306 0.0 0.0 0.00 0.00 0.00 78 1019.9
20260904051341 58 305 0.0 0.0 0.00 0.00 0.00 78 1019.8
20260904050325 59 296 1.0 1.0 0.00 0.00 0.00 77 1019.8
20260904045302 59 296 1.0 1.0 0.00 0.00 0.00 75 1019.7
20260904044241 59 297 0.0 1.0 0.00 0.00 0.00 76 1019.6
20260904043229 58 296 2.0 2.0 0.00 0.00 0.00 78 1019.7
20260904042205 58 305 0.0 0.0 0.00 0.00 0.00 78 1019.5
20260904041140 59 296 0.0 0.0 0.00 0.00 0.00 79 1019.5
20260904040117 59 304 2.0 2.0 0.00 0.00 0.00 77 1019.5
20260904035053 59 304 1.0 1.0 0.00 0.00 0.00 77 1019.5
20260904034040 59 297 0.0 0.0 0.00 0.00 0.00 80 1019.5
20260904033021 59 304 1.0 1.0 0.00 0.00 0.00 78 1019.7
20260904031957 59 303 1.0 1.0 0.00 0.00 0.00 80 1019.6
20260904030940 60 339 0.0 0.0 0.00 0.00 0.00 81 1019.5
20260904025924 60 288 1.0 1.0 0.00 0.00 0.00 80 1019.5
20260904024900 60 306 1.0 1.0 0.00 0.00 0.00 77 1019.8
20260904023840 59 314 0.0 0.0 0.00 0.00 0.00 82 1019.7
20260904022828 60 316 0.0 0.0 0.00 0.00 0.00 83 1019.7
20260904021805 60 297 1.0 2.0 0.00 0.00 0.00 81 1019.6
20260904020740 61 320 1.0 1.0 0.00 0.00 0.00 83 1019.7
20260904015716 61 304 2.0 2.0 0.00 0.00 0.00 82 1019.5
20260904014652 59 305 0.0 0.0 0.00 0.00 0.00 86 1019.7
20260904013642 60 288 0.0 0.0 0.00 0.00 0.00 85 1020.0
20260904012621 61 297 0.0 0.0 0.00 0.00 0.00 82 1019.7
20260904011558 61 297 0.0 0.0 0.00 0.00 0.00 83 1019.7
20260904010540 61 297 0.0 0.0 0.00 0.00 0.00 85 1019.5
20260904005525 61 296 0.0 0.0 0.00 0.00 0.00 85 1019.7
20260904004501 62 297 2.0 3.0 0.00 0.00 0.00 85 1019.6
20260904003437 61 304 0.0 0.0 0.00 0.00 0.00 87 1019.9
20260904002414 61 304 2.0 2.0 0.00 0.00 0.00 86 1019.8
20260904001350 62 304 1.0 1.0 0.00 0.00 0.00 85 1019.9
20260904000340 62 304 2.0 3.0 0.00 0.00 0.00 86 1020.3
20260903235316 62 304 1.0 1.0 0.00 0.00 0.00 86 1020.1
20260903234252 62 304 2.0 2.0 0.00 0.00 0.00 87 1020.2
20260903233239 62 305 1.0 2.0 0.00 0.00 0.00 89 1020.2
20260903232221 62 297 1.0 2.0 0.00 0.00 0.00 87 1020.2
20260903231156 62 297 2.0 2.0 0.00 0.00 0.00 87 1020.0
20260903230140 63 298 0.0 0.0 0.00 0.00 0.00 87 1020.1
20260903225124 63 297 2.0 2.0 0.00 0.00 0.00 86 1020.2
20260903224101 63 300 1.0 2.0 0.00 0.00 0.00 85 1020.0
20260903223037 63 323 2.0 3.0 0.00 0.00 0.00 87 1020.2
20260903222013 63 290 0.0 1.0 0.00 0.00 0.00 86 1019.9
20260903221005 63 320 1.0 2.0 0.00 0.00 0.00 85 1020.2
20260903215943 63 291 1.0 1.0 0.00 0.00 0.00 85 1020.0
20260903214933 63 290 0.0 0.0 0.00 0.00 0.00 86 1019.9
20260903213909 64 291 2.0 3.0 0.00 0.00 0.00 85 1020.1
20260903212845 64 291 0.0 0.0 0.00 0.00 0.00 85 1019.8
20260903211837 64 291 2.0 3.0 0.00 0.00 0.00 84 1019.9
20260903210829 64 291 1.0 2.0 0.00 0.00 0.00 85 1019.7
20260903205821 64 290 0.0 0.0 0.00 0.00 0.00 86 1020.0
20260903204813 65 300 2.0 2.0 0.00 0.00 0.00 83 1019.8
20260903203805 64 299 1.0 2.0 0.00 0.00 0.00 85 1019.7
20260903203753 64 299 1.0 2.0 0.00 0.00 0.00 85 1019.8
20260903203744 65 299 1.0 2.0 0.00 0.00 0.00 85 1019.8
20260903202204 65 299 2.0 3.0 0.00 0.00 0.00 82 1019.8
20260903201157 65 318 2.0 3.0 0.00 0.00 0.00 82 1019.8
20260903200149 66 291 2.0 2.0 0.00 0.00 0.00 81 1020.0
20260903195140 66 290 1.0 2.0 0.00 0.00 0.00 81 1019.9
20260903194117 66 317 1.0 2.0 0.00 0.00 0.00 82 1019.9
20260903193053 67 290 2.0 2.0 0.00 0.00 0.00 80 1019.9
20260903192039 67 289 2.0 3.0 0.00 0.00 0.00 80 1019.8
20260903191022 67 291 2.0 2.0 0.00 0.00 0.00 79 1019.7
20260903185958 68 291 2.0 2.0 0.00 0.00 0.00 79 1019.8
20260903184940 68 291 2.0 2.0 0.00 0.00 0.00 79 1019.5
20260903183925 68 290 2.0 3.0 0.00 0.00 0.00 79 1019.3
20260903182902 68 288 2.0 2.0 0.00 0.00 0.00 78 1019.1
20260903181837 69 302 2.0 2.0 0.00 0.00 0.00 78 1018.8
20260903180813 69 290 1.0 2.0 0.00 0.00 0.00 80 1018.8
20260903175749 70 298 2.0 3.0 0.00 0.00 0.00 78 1018.6
20260903174740 70 307 2.0 3.0 0.00 0.00 0.00 76 1018.6
20260903173717 71 290 0.0 0.0 0.00 0.00 0.00 79 1018.3
20260903172654 72 300 3.0 4.0 0.00 0.00 0.00 75 1018.2
20260903171645 72 302 4.0 4.0 0.00 0.00 0.00 74 1018.4
20260903170540 73 307 3.0 3.0 0.00 0.00 0.00 75 1018.1
20260903165525 75 303 3.0 3.0 0.00 0.00 0.00 74 1018.4
20260903164502 75 308 2.0 3.0 0.00 0.00 0.00 72 1018.3
20260903163438 76 312 2.0 3.0 0.00 0.00 0.00 70 1018.1
20260903162414 75 309 3.0 3.0 0.00 0.00 0.00 71 1018.2
20260903161350 76 303 2.0 3.0 0.00 0.00 0.00 73 1018.1
20260903160341 76 310 3.0 4.0 0.00 0.00 0.00 71 1018.0
20260903155317 76 296 2.0 3.0 0.00 0.00 0.00 72 1018.0
20260903154257 77 304 2.0 3.0 0.00 0.00 0.00 68 1018.0
20260903153240 79 295 2.0 3.0 0.00 0.00 0.00 64 1018.3
20260903152221 81 269 2.0 3.0 0.00 0.00 0.00 54 1018.4
20260903151157 82 277 3.0 4.0 0.00 0.00 0.00 51 1018.5
20260903150134 82 262 0.0 1.0 0.00 0.00 0.00 51 1018.6
20260903145125 82 30 0.0 1.0 0.00 0.00 0.00 55 1018.6
20260903144103 83 279 1.0 2.0 0.00 0.00 0.00 53 1018.7
20260903143038 83 246 1.0 4.0 0.00 0.00 0.00 52 1018.5
20260903142030 83 291 1.0 2.0 0.00 0.00 0.00 53 1018.5
20260903141007 83 281 0.0 1.0 0.00 0.00 0.00 57 1018.5
20260903135957 83 274 0.0 1.0 0.00 0.00 0.00 56 1018.5
20260903134949 83 273 0.0 1.0 0.00 0.00 0.00 54 1018.6
20260903133941 83 323 0.0 1.0 0.00 0.00 0.00 56 1018.7
20260903132933 83 270 0.0 0.0 0.00 0.00 0.00 55 1018.5
20260903131926 83 256 1.0 2.0 0.00 0.00 0.00 55 1018.4
20260903130902 84 269 2.0 3.0 0.00 0.00 0.00 54 1018.5
20260903125853 83 264 0.0 1.0 0.00 0.00 0.00 54 1018.4
20260903124840 82 285 1.0 3.0 0.00 0.00 0.00 56 1018.5
20260903123823 82 175 2.0 3.0 0.00 0.00 0.00 51 1018.6
20260903122813 83 267 2.0 4.0 0.00 0.00 0.00 52 1018.4
20260903121750 82 293 0.0 1.0 0.00 0.00 0.00 52 1018.4
20260903120740 81 258 2.0 3.0 0.00 0.00 0.00 54 1018.8
20260903115718 82 283 3.0 4.0 0.00 0.00 0.00 54 1018.9
20260903114654 82 279 1.0 2.0 0.00 0.00 0.00 53 1018.7
20260903113640 81 225 1.0 4.0 0.00 0.00 0.00 57 1019.0
20260903112621 81 260 2.0 4.0 0.00 0.00 0.00 57 1019.0
20260903111613 81 275 0.0 1.0 0.00 0.00 0.00 56 1019.1
20260903110550 81 272 0.0 1.0 0.00 0.00 0.00 63 1019.2
20260903105541 80 273 1.0 2.0 0.00 0.00 0.00 60 1019.3
20260903104519 80 260 0.0 1.0 0.00 0.00 0.00 63 1019.5
20260903103453 80 239 1.0 3.0 0.00 0.00 0.00 62 1019.5
20260903102439 79 272 1.0 4.0 0.00 0.00 0.00 61 1019.8
20260903101422 79 280 0.0 1.0 0.00 0.00 0.00 63 1019.8
20260903100358 79 277 2.0 5.0 0.00 0.00 0.00 62 1020.1
20260903095349 80 263 2.0 4.0 0.00 0.00 0.00 58 1020.0
20260903094341 78 293 0.0 1.0 0.00 0.00 0.00 62 1020.0
20260903093320 79 281 0.0 0.0 0.00 0.00 0.00 56 1020.1
20260903092255 78 281 0.0 0.0 0.00 0.00 0.00 54 1020.1
20260903091240 76 277 0.0 0.0 0.00 0.00 0.00 59 1020.5